Location: Corbenay
(47.8928°N, 6.3305°E)
Time: 14:58:48
(UTC+00:00)

Daily predictions for brighter satellites

Satellite Brightness Start Highest point End
(mag) Time Altitude Azimuth Time Altitude Azimuth Time Altitude Azimuth
CSL-04 Rocket 4.4 17:54:08 10° SE 17:58:51 33° ENE 18:03:38 10° N
Spot 2 4.0 17:55:17 10° SSE 17:59:34 89° ENE 18:03:42 10° NNW
CZ-4B R/B 2.7 18:00:28 10° NE 18:02:34 17° E 18:04:40 10° SE
Cosmos 968 Rocket 3.5 17:59:00 10° SSW 18:04:15 82° ESE 18:09:34 10° NNE
CZ-4C R/B 3.4 18:03:19 10° N 18:06:54 70° WNW 18:10:28 10° SSW
Cosmos 2221 Rocket 3.7 18:03:21 10° N 18:07:49 85° W 18:12:13 10° S
Cosmos 2082 Rocket 2.7 18:04:46 10° NNW 18:10:27 65° WSW 18:16:04 10° SSE
Lacrosse 5 rocket 2.0 18:07:23 10° NW 18:11:51 48° NNE 18:16:05 10° ESE
Okean 2 3.4 18:08:59 10° N 18:13:02 59° ENE 18:17:03 10° SSE
CZ-4 R/B 1.2 18:09:57 10° SSE 18:13:48 79° ENE 18:17:39 10° N
Cosmos 1733 Rocket 3.0 18:10:59 10° S 18:15:18 88° E 18:19:40 10° N
Cosmos 1975 2.7 18:14:28 10° S 18:18:25 75° E 18:22:24 10° NNE
Feng Yun 1-1 Rocket 4.4 18:13:20 10° S 18:18:43 76° WSW 18:24:09 10° NNW
ERBS 3.9 18:16:10 10° W 18:19:10 31° NNW 18:22:10 10° NE
Cosmos 1503 Rocket 4.3 18:14:57 10° S 18:19:52 45° ESE 18:24:48 10° NNE
HJ-1C 3.2 18:17:23 10° SSE 18:20:39 74° ENE 18:23:55 10° N
H-2A R/B 2.0 18:16:36 10° NNE 18:20:48 61° ESE 18:24:53 10° S
Lacrosse 4 Rocket 3.4 18:19:28 10° WSW 18:23:00 28° NW 18:26:34 10° NNE
ARGOS 3.7 18:17:45 10° S 18:23:04 65° WSW 18:28:26 10° NNW
Geosat 4.0 18:19:15 10° NE 18:24:15 62° ESE 18:29:14 10° SSW
USA 276 2.0 18:26:20 10° WSW 18:29:29 82° SSE 18:32:02 15° ENE
Okean-O 2.6 18:26:51 10° SSE 18:31:15 71° ENE 18:35:40 10° N
Cosmos 1400 Rocket 3.1 18:28:11 10° S 18:32:07 46° E 18:36:01 10° NNE
SJ-6B 3.8 18:29:27 12° SE 18:32:39 29° ENE 18:36:15 10° N
Cosmos 1943 Rocket 2.2 18:27:27 10° S 18:32:51 55° ESE 18:38:20 10° NE
Cosmos 2278 Rocket 3.7 18:27:41 10° WSW 18:33:01 40° NW 18:38:24 10° NNE
Helios 1A Rocket 4.3 18:32:23 15° E 18:34:17 21° ENE 18:37:20 10° NNE
Cosmos 1354 Rocket 4.1 18:30:07 10° S 18:35:12 51° ESE 18:40:17 10° NNE
Cosmos 2074 Rocket 4.0 18:29:29 10° S 18:35:42 73° E 18:41:59 10° NNE
DMSP B5D1-3 4.4 18:31:46 10° NNE 18:36:54 77° ESE 18:42:00 10° S
Cosmos 2369 Rocket 2.9 18:32:34 10° SSE 18:37:25 30° ESE 18:42:15 10° NE
CZ-2C R/B 3.5 18:35:29 10° N 18:40:52 57° WNW 18:46:19 10° SSW
Cosmos 1486 Rocket 4.3 18:36:51 10° SSW 18:42:06 73° WNW 18:47:26 10° NNE
BREEZE-M DEB (TANK) 3.6 18:33:07 10° WSW 18:42:41 79° SSE 18:45:09 18° ENE
Cosmos 2297 3.6 18:37:13 10° SSW 18:42:52 73° ESE 18:48:35 10° NNE
OBJECT-B 1.2 18:42:53 19° SE 18:44:47 40° ENE 18:47:48 10° N
Cosmos 1025 Rocket 4.2 18:41:50 10° NNE 18:45:23 24° ENE 18:46:44 20° E
Resurs 01 Rocket 3.2 18:46:34 16° ENE 18:47:29 17° ENE 18:50:20 10° NNE
Cosmos 1805 4.1 18:45:05 14° SE 18:47:47 28° E 18:51:10 10° NNE
CSL-04 Debris 4.1 18:43:53 10° SSE 18:49:17 86° ENE 18:54:43 10° NNW
Cosmos 1975 Rocket 3.5 18:45:21 10° N 18:49:32 40° ENE 18:52:25 18° SE
PSLV R/B 4.1 18:46:26 10° NNE 18:50:30 49° E 18:54:31 10° S
USA 305 4.1 18:48:19 10° WNW 18:52:14 35° N 18:55:16 15° ENE
USA 186 1.7 18:51:22 27° SE 18:52:38 50° ENE 18:55:37 10° N
COSMOS 2455 3.1 18:50:06 10° NW 18:56:07 70° WSW 19:02:06 10° SSE
Cosmos 1707 3.7 18:53:39 10° NNW 18:57:27 50° W 19:01:14 10° S
Cosmos 1184 Rocket 3.3 18:54:36 10° N 18:57:36 35° ENE 18:58:00 34° E
Resurs 1-3 4.3 18:57:47 25° ESE 18:59:28 34° ENE 19:03:27 10° N
Meteor 1-12 Rocket 4.5 18:54:07 10° S 18:59:55 53° E 19:05:43 10° NNE
Atlas Centaur 2 4.4 18:55:02 10° SSW 19:00:41 20° S 19:04:05 15° SE
ISS -3.1 18:57:41 10° W 19:01:00 53° NNW 19:02:48 24° NE
Cosmos 1674 2.5 18:57:20 10° N 19:01:03 80° E 19:04:12 14° SSE
Cosmos 773 Rocket 4.0 18:59:48 10° NNW 19:05:06 87° ENE 19:09:30 15° SSE
DMSP B5D2-2 4.4 19:00:03 10° N 19:05:20 72° WNW 19:10:35 10° SSW
USA 307 4.1 19:02:04 10° WNW 19:06:01 35° N 19:08:31 19° ENE
Cosmos 1908 Rocket 3.9 19:04:24 10° SSW 19:08:51 71° WNW 19:13:20 10° N
SeaSat 1 2.4 19:08:11 19° SSE 19:11:45 90° WSW 19:16:44 10° NNW
Cosmos 1766 4.1 19:12:34 31° ENE 19:12:34 31° ENE 19:15:24 10° NNE
KORONAS-FOTON 3.9 19:08:14 10° NNW 19:12:01 73° W 19:15:20 13° S
Cosmos 1656 Rocket 3.9 19:12:19 10° S 19:17:32 42° ESE 19:22:42 10° NE
Cosmos 962 Rocket 4.4 19:13:34 10° S 19:19:40 62° E 19:25:44 10° NNE
USA 306 4.0 19:16:20 10° WNW 19:20:17 36° N 19:22:04 25° NE
Cosmos 1346 Rocket 2.8 19:16:54 10° NNW 19:20:56 84° W 19:23:11 26° S
USA 281 3.8 19:15:16 10° NE 19:20:56 30° ESE 19:21:33 30° ESE
SL-27 R/B 4.4 19:20:51 10° N 19:22:15 17° NNE 19:22:15 17° NNE
IGS 5A 4.0 19:23:27 38° ENE 19:23:33 38° ENE 19:27:24 10° N
USA 308 4.0 19:21:27 10° WNW 19:25:25 36° N 19:27:02 26° NE
Cosmos 1733 3.0 19:24:41 43° SSE 19:25:44 67° E 19:29:32 10° NNE
Cosmos 1626 2.1 19:22:21 10° N 19:26:04 82° W 19:27:25 37° S
ATLAS CENTAUR R/B 2.6 19:22:35 10° NW 19:27:03 45° WSW 19:30:02 20° S
Ariane Rocket 3.0 19:30:42 41° SE 19:32:15 59° ENE 19:37:15 10° N
CZ-4B R/B 3.5 19:32:03 10° N 19:34:40 26° WNW 19:37:18 10° SW
SJ 16-02 1.2 19:31:10 10° S 19:35:34 69° ESE 19:40:00 10° NNE
Okean 2 Rocket 4.1 19:38:54 30° NE 19:38:54 30° NE 19:41:33 10° NNE
USA 215 3.9 19:34:11 21° SSE 19:38:23 48° SW 19:44:44 10° WNW
Landsat 7 4.0 19:39:17 49° E 19:39:38 50° ENE 19:44:15 10° N
Cosmos 1538 Rocket 4.0 19:34:38 10° NNW 19:40:01 85° ENE 19:41:55 42° SSE
Sich 1 Rocket 3.5 19:44:12 64° SE 19:44:37 69° E 19:49:08 10° NNE
Meteor 2-20 4.3 19:43:04 10° N 19:49:13 84° E 19:51:54 36° SSE
Lacrosse 5 rocket 2.3 19:46:45 10° WNW 19:51:01 42° SW 19:51:42 39° SSW
SL-8 Rocket 3.9 19:47:14 19° S 19:51:55 75° E 19:58:15 10° NNE
SPOT 3 Rocket 3.7 19:52:55 51° ENE 19:53:01 52° ENE 19:58:00 10° N
Meteor 2-10 4.1 19:55:24 59° ESE 19:55:52 61° E 20:01:20 10° NNE
Meteor 1-24 Rocket 3.5 19:50:45 10° N 19:56:05 68° ENE 19:56:39 63° ESE
Cosmos 2297 Rocket 3.9 19:53:58 10° N 19:57:56 19° NE 19:58:26 19° NE
Cosmos 1339 Rocket 4.5 19:52:48 10° N 19:59:02 81° W 20:01:58 33° S
Cosmos 1315 Rocket 3.2 19:58:57 49° SW 19:59:44 60° WNW 20:03:44 10° N
MOS 1 4.4 19:57:43 36° S 20:00:08 74° WSW 20:05:51 10° NNW
IRS-1A Rocket 4.4 19:58:33 37° S 20:01:01 76° WSW 20:06:57 10° NNW
Cosmos 1727 Rocket 4.0 19:58:45 10° N 20:05:02 60° ENE 20:05:38 57° ESE
APEX 3.6 20:00:36 10° NNW 20:05:18 76° NW 20:05:18 76° NW
USA 276 4.3 20:02:39 10° W 20:04:15 26° WNW 20:04:15 26° WNW
Cosmos 1441 Rocket 4.2 20:03:28 10° NNW 20:06:08 43° NNW 20:06:08 43° NNW
Cosmos 1536 Rocket 4.0 20:04:16 10° N 20:07:47 54° N 20:07:47 54° N
Helios 1A Rocket 3.9 20:08:36 40° WSW 20:09:09 43° W 20:13:04 10° NNW
Cosmos 1833 4.3 20:05:37 10° NNW 20:11:14 70° WSW 20:12:13 57° SSW
Cosmos 158 Rocket 4.1 20:07:24 10° NNW 20:12:24 62° WSW 20:12:55 58° SW
SL-14 R/B 4.4 20:10:01 10° NNW 20:13:46 40° W 20:13:51 40° W
Meteor 2-20 Rocket 4.4 20:09:41 10° N 20:15:51 84° W 20:17:10 58° S
Cosmos 1943 Rocket 4.0 20:12:03 10° WSW 20:16:55 30° NW 20:21:51 10° NNE
OBJECT-B 3.9 20:15:48 10° WSW 20:17:05 12° W 20:18:27 10° WNW
Cosmos 2227 Rocket 3.9 20:15:50 10° N 20:19:56 20° NE 20:19:56 20° NE
Cosmos 2369 Rocket 3.0 20:15:43 10° SW 20:21:12 50° NW 20:26:42 10° NNE
Cosmos 923 Rocket 4.0 20:16:37 10° NNW 20:21:26 76° N 20:21:26 76° N
Cosmos 1025 Rocket 4.3 20:19:06 10° NNW 20:23:06 36° W 20:23:38 35° WSW
Resurs 01 Rocket 2.2 20:24:08 56° WNW 20:24:08 56° WNW 20:27:55 10° NNW
Spot 2 Rocket 4.3 20:28:30 40° NNE 20:28:30 40° NNE 20:32:02 10° N
SPOT 1/Viking Rocket 3.7 20:30:21 70° NNW 20:30:21 70° NNW 20:34:55 10° NNW
USA 305 4.3 20:28:32 10° WNW 20:31:17 36° NW 20:31:17 36° NW
NOSS 3-3 (A) 4.4 20:26:06 10° NW 20:33:36 87° NE 20:34:58 66° SE
NOSS 3-3 (C) 4.4 20:26:12 10° NW 20:33:42 87° NE 20:35:03 66° SE
Cosmos 2366 rocket 4.2 20:31:38 39° SSW 20:33:57 68° WNW 20:40:06 10° N
ARIANE 5 R/B 4.5 20:36:51 23° N 20:36:51 23° N 20:38:43 10° N
SPOT 5 4.1 20:36:25 38° NNE 20:36:25 38° NNE 20:40:01 10° N
Cosmos 1680 Rocket 3.8 20:30:41 10° NNW 20:35:04 62° NNW 20:35:04 62° NNW
ISS -0.7 20:34:57 10° WNW 20:35:48 16° WNW 20:35:48 16° WNW
Cosmos 1241 Rocket 4.4 20:34:24 10° NW 20:40:35 80° WSW 20:40:35 80° WSW
Cosmos 2218 Rocket 4.4 20:38:15 34° SW 20:40:53 59° WNW 20:47:02 10° N
Terra 3.7 20:58:41 25° N 20:58:41 25° N 21:00:44 10° N
ERS-1 Rocket 4.3 20:59:17 35° N 20:59:17 35° N 21:02:12 10° N
USA 281 3.5 20:59:20 10° NNE 21:05:48 62° WNW 21:08:21 38° WSW
SJ 16-02 4.1 21:11:44 10° W 21:14:39 17° NW 21:17:33 10° N
CENTAUR R/B 3.9 21:45:13 34° NNE 21:45:13 34° NNE 21:49:18 10° NE
Cosmos 2297 Rocket 3.7 21:37:13 10° NNW 21:40:14 33° NNW 21:40:14 33° NNW
Cosmos 2227 Rocket 4.0 21:59:11 10° NNW 22:01:45 28° NNW 22:01:45 28° NNW
Cosmos 2263 Rocket 4.4 22:19:45 10° NNW 22:21:55 20° N 22:21:55 20° N
CENTAUR R/B 4.4 23:32:20 25° NW 23:34:16 28° NNW 23:40:45 10° NE
SL-16 R/B 4.4 23:50:55 24° NE 23:50:55 24° NE 23:54:53 10° N
